Miscellaneous Local Product
Issued by NWS North Platte, NE

Home | Current Version | Previous Version | Text Only | Print | Product List | Glossary On
Versions: 1 2 3 4 5 6 7 8 9 10 11 12 13 14 15 16 17 18 19 20 21 22 23 24 25 26 27 28 29 30 31 32 33 34 35 36 37 38 39 40 41 42 43 44 45 46 47 48 49 50
000
AXUS43 KLBF 281510
MISLBF


WESTERN AND NORTH CENTRAL NEBRASKA HOURLY WEATHER ROUNDUP
NATIONAL WEATHER SERVICE NORTH PLATTE NE
1000 AM CDT SAT MAR 28 2015

***STATIONS NOT REPORTING VARIABLES SUCH AS SKY/WEATHER OR
PRESSURE ARE PROVIDED BY THE NEBRASKA DEPARTMENT OF
ROADS...RAWS...AND APRS NETWORKS...AND ARE NOT UNDER
NATIONAL WEATHER SERVICE QUALITY CONTROL***

...OBSERVATIONS IN AND NEAR THE EASTERN PANHANDLE OF NEBRASKA...

CITY           SKY/WX    TMP DP  RH WIND       PRES   REMARKS
PINE RIDGE     SUNNY     46  36  68 CALM      29.93F
CHADRON        SUNNY     47  35  63 W5        29.94F
ALLIANCE       SUNNY     50  34  54 SW3       29.98S
SIDNEY         SUNNY     57  31  37 W12       30.01S
WHITECLAY        N/A     52  36  53 E5          N/A
CRESCENT LAKE    N/A     53  38  58 SW3         N/A
BIG SPRINGS      N/A     39  33  80 W8          N/A  WCI  33
$$

...OBSERVATIONS IN NORTH CENTRAL NEBRASKA...

CITY           SKY/WX    TMP DP  RH WIND       PRES   REMARKS
VALENTINE      SUNNY     46  34  62 S5        29.98F
THEDFORD       SUNNY     51  37  59 SE9       30.00S
AINSWORTH      SUNNY     50  35  55 S8        29.99F
O`NEILL        SUNNY     38  30  74 S10       30.04S WCI  31
ORD            SUNNY     36  26  67 VRB3      30.04S
BROKEN BOW     SUNNY     38  29  70 SE8       30.02S WCI  32
BROWNLEE         N/A     51  38  60 S10         N/A
SPRINGVIEW       N/A     41  34  76 CALM        N/A
BREWSTER         N/A     45  34  65 S5          N/A
ROSE             N/A     40  32  74 E5          N/A
NEWPORT          N/A     44  30  57 SE8         N/A
SARGENT          N/A     37  29  74 S3          N/A
COMSTOCK         N/A     41  27  58 S6          N/A
EWING            N/A     36  32  84 S6          N/A  WCI  31
$$

...OBSERVATIONS IN SOUTHWEST NEBRASKA AND FAR NORTHEAST COLORADO...

CITY           SKY/WX    TMP DP  RH WIND       PRES   REMARKS
WRAY           FAIR      54  35  48 CALM      30.03R
HOLYOKE        FAIR      59  34  38 W3        30.01S
IMPERIAL         N/A     51  33  50 W10       30.02R
OGALLALA       SUNNY     48  35  61 W7        30.01S
NORTH PLATTE   SUNNY     47  37  68 VRB3      30.01S
MCCOOK         SUNNY     46  34  62 E7        30.02S
LEXINGTON      SUNNY     43  33  68 SE3       30.03S
PAXTON           N/A     39  35  84 CALM        N/A
SUTHERLAND       N/A     46  38  73 CALM        N/A
BRADY            N/A     46  38  73 CALM        N/A
GOTHENBURG       N/A     42  33  69 CALM        N/A
CALLAWAY         N/A     46  43  89 SE3         N/A
$$

...NORTH PLATTE AREA...

CITY           SKY/WX    TMP DP  RH WIND       PRES   REMARKS
AIRPORT        SUNNY     47  37  68 VRB3      30.01S
DOWNTOWN         N/A     49  38  67 CALM        N/A
$$

...SOME WEATHER OBSERVATIONS FROM AROUND THE REGION...

CITY           SKY/WX    TMP DP  RH WIND       PRES   REMARKS
DENVER         SUNNY     61  32  33 SW8       30.09S
LARAMIE        SUNNY     51  26  37 SW18      30.14F
CHEYENNE       SUNNY     55  28  35 SW8       30.08F
SCOTTSBLUFF    SUNNY     49  33  54 NW6       30.00S
RAPID CITY     SUNNY     49  35  58 SE6       29.88F
PIERRE         MOSUNNY   32  29  88 SE14      29.98S WCI  22
WINNER         FAIR      49  34  56 SE8       29.99S
SIOUX FALLS    MOSUNNY   35  26  69 S13       30.12F WCI  26
OMAHA          MOSUNNY   40  26  57 SE16      30.17R WCI  31
GRAND ISLAND   SUNNY     39  27  62 SE7       30.08R WCI  34
KANSAS CITY    CLOUDY    39  29  67 SE17      30.17R WCI  30
WICHITA        MOSUNNY   50  37  61 S7        30.02S
HAYS           MOSUNNY   46  32  57 NE5       30.03S
LIBERAL        SUNNY     59  37  44 N13       30.05R
GOODLAND       SUNNY     58  36  43 W8        30.04S
$$



USA.gov is the U.S. government's official web portal to all federal, state and local government web resources and services.